Terminal Aerodrome Forecast
Issued by NWS

Home | Current Version | Previous Version | Text Only | Print | Product List | Glossary On
Versions: 1 2 3 4 5 6 7 8 9 10 11 12 13 14 15 16 17 18 19 20 21 22 23 24 25 26 27 28 29 30 31 32 33 34 35 36 37 38 39 40 41 42 43 44 45 46
000
FTUS46 KOTX 281139
TAFPUW
TAF
KPUW 281139Z 2812/2912 25011KT 3SM -SHSN SCT005 OVC012
     FM281400 26006KT P6SM VCSH SCT008 OVC015
     FM282100 28006KT P6SM SCT015 BKN080
     FM291000 11013KT P6SM VCSH OVC025=

USA.gov is the U.S. government's official web portal to all federal, state and local government web resources and services.